Weather History for KUTA - February, 2014

Change the Weather History Date:

Saturday, February 1, 2014

  Actual Average (KMEM) Record (KMEM)
Temperature  
Mean Temperature 60 °F 42 °F  
Max Temperature 69 °F 51 °F 77 °F (1911)
Min Temperature 50 °F 34 °F 2 °F (1899)
Degree Days  
Heating Degree Days 6 23  
Month to date heating degree days 23  
Since 1 July heating degree days 1925  
Cooling Degree Days 0 0  
Month to date cooling degree days 0  
Year to date cooling degree days 1  
Growing Degree Days 10 (Base 50)    
Moisture  
Dew Point 48 °F    
Average Humidity 67    
Maximum Humidity 82    
Minimum Humidity 53    
Precipitation  
Precipitation 0.00 in 0.16 in 1.57 in (1897)
Month to date precipitation 0.16  
Year to date precipitation 4.14  
Snow  
Snow 0.00 in 0.10 in 4.60 in (1985)
Month to date snowfall 0.1  
Since 1 July snowfall 2.2  
Snow Depth -    
Sea Level Pressure  
Sea Level Pressure 29.95 in    
Wind  
Wind Speed 12 mph (South)    
Max Wind Speed 18 mph    
Max Gust Speed 25 mph    
Visibility 10 miles    
Events Rain    
T = Trace of Precipitation, MM = Missing Value Source: NWS Daily Summary

Daily Weather History Graph

Daily Weather History Graph

Search for Another Location

Airport or City:

Trip Planner

Search our weather history database for the weather conditions in past years. The results will help you decide how hot, cold, wet, or windy it might be!

Date:

Astronomy

Feb. 01, 2014 Rise Set
Actual Time 6:59 AM CST 5:30 PM CST
Civil Twilight 6:33 AM CST 5:57 PM CST
Nautical Twilight 6:02 AM CST 6:27 PM CST
Astronomical Twilight 5:33 AM CST 6:57 PM CST
Moon 7:56 AM CST (2/1) 7:57 PM CST (2/1)
Length of Visible Light 11h 24m
Length of Day
10h 31m
Waxing Crescent, 5% of the Moon is Illuminated
Feb 1
Waxing Crescent
Feb 6
First Quarter
Feb 14
Full
Feb 22
Last Quarter
Mar 1
New

Hourly Weather History & Observations

Time (CST) Temp. Dew Point Humidity Pressure Visibility Wind Dir Wind Speed Gust Speed Precip Events Conditions
12:15 AM 53.6 °F 42.8 °F 67% 29.98 in 10.0 mi South 11.5 mph - N/A   Overcast
12:35 AM 53.6 °F 42.8 °F 67% 29.99 in 10.0 mi South 9.2 mph - N/A   Overcast
12:55 AM 53.6 °F 42.8 °F 67% 29.99 in 10.0 mi South 9.2 mph - N/A   Overcast
1:15 AM 53.6 °F 42.8 °F 67% 29.99 in 10.0 mi South 10.4 mph - N/A   Overcast
1:35 AM 53.6 °F 42.8 °F 67% 29.99 in 10.0 mi South 11.5 mph - N/A   Overcast
1:55 AM 53.6 °F 42.8 °F 67% 29.98 in 10.0 mi South 11.5 mph - N/A   Overcast
2:15 AM 53.6 °F 42.8 °F 67% 29.98 in 10.0 mi South 9.2 mph - N/A   Overcast
2:35 AM 53.6 °F 42.8 °F 67% 29.98 in 10.0 mi South 10.4 mph - N/A   Overcast
2:55 AM 51.8 °F 42.8 °F 71% 29.97 in 10.0 mi SSE 10.4 mph - N/A   Overcast
3:15 AM 53.6 °F 42.8 °F 67% 29.98 in 10.0 mi South 11.5 mph - N/A   Overcast
3:35 AM 51.8 °F 42.8 °F 71% 29.97 in 10.0 mi South 11.5 mph - N/A   Overcast
3:55 AM 51.8 °F 42.8 °F 71% 29.97 in 10.0 mi South 11.5 mph - N/A   Overcast
4:15 AM 51.8 °F 42.8 °F 71% 29.97 in 10.0 mi South 12.7 mph - N/A   Overcast
4:35 AM 51.8 °F 42.8 °F 71% 29.97 in 10.0 mi SSE 10.4 mph - N/A   Overcast
4:55 AM 51.8 °F 42.8 °F 71% 29.98 in 10.0 mi South 11.5 mph - N/A   Overcast
5:15 AM 51.8 °F 42.8 °F 71% 29.98 in 10.0 mi South 8.1 mph - N/A   Overcast
5:35 AM 51.8 °F 42.8 °F 71% 29.98 in 10.0 mi South 5.8 mph - N/A   Overcast
5:55 AM 51.8 °F 42.8 °F 71% 29.98 in 10.0 mi South 8.1 mph - N/A   Mostly Cloudy
6:15 AM 51.8 °F 42.8 °F 71% 29.98 in 10.0 mi South 9.2 mph - N/A   Mostly Cloudy
6:35 AM 51.8 °F 42.8 °F 71% 29.99 in 10.0 mi South 8.1 mph - N/A   Overcast
6:55 AM 51.8 °F 42.8 °F 71% 30.00 in 10.0 mi South 8.1 mph - N/A   Mostly Cloudy
7:15 AM 50.0 °F 44.6 °F 82% 30.00 in 10.0 mi SSE 9.2 mph - N/A Rain Light Rain
7:35 AM 51.8 °F 44.6 °F 76% 29.99 in 10.0 mi SSE 15.0 mph - N/A   Overcast
7:55 AM 51.8 °F 44.6 °F 76% 30.00 in 10.0 mi South 9.2 mph - N/A   Overcast
8:15 AM 51.8 °F 44.6 °F 76% 30.00 in 10.0 mi South 10.4 mph 17.3 mph N/A   Overcast
8:35 AM 53.6 °F 44.6 °F 72% 30.00 in 10.0 mi South 12.7 mph 17.3 mph N/A   Overcast
8:55 AM 53.6 °F 44.6 °F 72% 30.00 in 10.0 mi South 11.5 mph - N/A   Overcast
9:15 AM 53.6 °F 46.4 °F 77% 30.00 in 10.0 mi South 13.8 mph - N/A   Overcast
9:35 AM 55.4 °F 46.4 °F 72% 30.00 in 10.0 mi South 16.1 mph 19.6 mph N/A   Overcast
9:55 AM 55.4 °F 46.4 °F 72% 30.00 in 10.0 mi South 16.1 mph - N/A   Mostly Cloudy
10:15 AM 55.4 °F 46.4 °F 72% 30.00 in 10.0 mi South 15.0 mph 20.7 mph N/A   Mostly Cloudy
10:35 AM 59.0 °F 48.2 °F 67% 30.00 in 10.0 mi South 15.0 mph 20.7 mph N/A   Mostly Cloudy
10:55 AM 59.0 °F 50.0 °F 72% 30.00 in 10.0 mi South 15.0 mph 19.6 mph N/A   Mostly Cloudy
11:15 AM 59.0 °F 50.0 °F 72% 29.99 in 10.0 mi South 16.1 mph 20.7 mph N/A   Scattered Clouds
11:35 AM 60.8 °F 50.0 °F 68% 29.98 in 10.0 mi South 16.1 mph 21.9 mph N/A   Mostly Cloudy
11:55 AM 60.8 °F 50.0 °F 68% 29.98 in 10.0 mi South 15.0 mph 23.0 mph N/A   Mostly Cloudy
12:15 PM 62.6 °F 50.0 °F 63% 29.97 in 10.0 mi South 16.1 mph 20.7 mph N/A   Scattered Clouds
12:35 PM 62.6 °F 51.8 °F 68% 29.95 in 10.0 mi South 17.3 mph 23.0 mph N/A   Scattered Clouds
12:55 PM 62.6 °F 51.8 °F 68% 29.95 in 10.0 mi South 16.1 mph - N/A   Mostly Cloudy
1:15 PM 64.4 °F 51.8 °F 64% 29.93 in 10.0 mi South 16.1 mph - N/A   Scattered Clouds
1:35 PM 64.4 °F 51.8 °F 64% 29.92 in 10.0 mi South 15.0 mph 23.0 mph N/A   Scattered Clouds
1:55 PM 68.0 °F 51.8 °F 56% 29.91 in 10.0 mi South 18.4 mph - N/A   Scattered Clouds
2:15 PM 68.0 °F 51.8 °F 56% 29.91 in 10.0 mi South 16.1 mph 23.0 mph N/A   Scattered Clouds
2:35 PM 68.0 °F 51.8 °F 56% 29.90 in 10.0 mi South 15.0 mph 21.9 mph N/A   Scattered Clouds
2:55 PM 68.0 °F 51.8 °F 56% 29.90 in 10.0 mi South 16.1 mph - N/A   Scattered Clouds
3:15 PM 69.8 °F 51.8 °F 53% 29.90 in 10.0 mi South 16.1 mph 21.9 mph N/A   Mostly Cloudy
3:35 PM 69.8 °F 51.8 °F 53% 29.89 in 10.0 mi South 15.0 mph 21.9 mph N/A   Mostly Cloudy
3:55 PM 69.8 °F 51.8 °F 53% 29.90 in 10.0 mi South 16.1 mph 23.0 mph N/A   Mostly Cloudy
4:15 PM 68.0 °F 51.8 °F 56% 29.90 in 10.0 mi South 15.0 mph 20.7 mph N/A   Mostly Cloudy
4:35 PM 68.0 °F 51.8 °F 56% 29.90 in 10.0 mi South 15.0 mph 25.3 mph N/A   Mostly Cloudy
4:55 PM 68.0 °F 51.8 °F 56% 29.90 in 10.0 mi South 17.3 mph - N/A   Overcast
5:15 PM 68.0 °F 51.8 °F 56% 29.90 in 10.0 mi South 12.7 mph - N/A   Overcast
5:35 PM 66.2 °F 51.8 °F 60% 29.90 in 10.0 mi South 11.5 mph 18.4 mph N/A   Overcast
5:55 PM 66.2 °F 51.8 °F 60% 29.91 in 10.0 mi South 13.8 mph - N/A   Overcast
6:15 PM 64.4 °F 51.8 °F 64% 29.92 in 10.0 mi South 12.7 mph - N/A   Mostly Cloudy
6:35 PM 64.4 °F 51.8 °F 64% 29.91 in 10.0 mi South 11.5 mph - N/A   Mostly Cloudy
6:55 PM 64.4 °F 51.8 °F 64% 29.92 in 10.0 mi South 12.7 mph 17.3 mph N/A   Mostly Cloudy
7:15 PM 64.4 °F 51.8 °F 64% 29.92 in 10.0 mi South 11.5 mph - N/A   Overcast
7:35 PM 64.4 °F 51.8 °F 64% 29.92 in 10.0 mi South 11.5 mph - N/A   Overcast
7:55 PM 64.4 °F 51.8 °F 64% 29.92 in 10.0 mi South 11.5 mph - N/A   Overcast
8:15 PM 64.4 °F 51.8 °F 64% 29.93 in 10.0 mi South 10.4 mph - N/A   Overcast
8:35 PM 64.4 °F 51.8 °F 64% 29.93 in 10.0 mi South 9.2 mph - N/A   Mostly Cloudy
8:55 PM 62.6 °F 51.8 °F 68% 29.93 in 10.0 mi South 10.4 mph - N/A   Mostly Cloudy
9:15 PM 62.6 °F 51.8 °F 68% 29.93 in 10.0 mi South 10.4 mph - N/A   Overcast
9:35 PM 62.6 °F 51.8 °F 68% 29.93 in 10.0 mi South 12.7 mph 16.1 mph N/A   Overcast
9:55 PM 62.6 °F 51.8 °F 68% 29.92 in 10.0 mi South 10.4 mph - N/A   Mostly Cloudy
10:15 PM 62.6 °F 51.8 °F 68% 29.92 in 10.0 mi South 9.2 mph - N/A   Scattered Clouds
10:35 PM 62.6 °F 51.8 °F 68% 29.93 in 10.0 mi South 10.4 mph - N/A   Scattered Clouds
10:55 PM 60.8 °F 51.8 °F 72% 29.93 in 10.0 mi South 9.2 mph - N/A   Scattered Clouds
11:15 PM 60.8 °F 51.8 °F 72% 29.92 in 10.0 mi South 9.2 mph - N/A   Mostly Cloudy
11:35 PM 60.8 °F 51.8 °F 72% 29.92 in 10.0 mi South 15.0 mph 18.4 mph N/A   Mostly Cloudy
11:55 PM 62.6 °F 51.8 °F 68% 29.91 in 10.0 mi South 15.0 mph - N/A   Mostly Cloudy